When you browse on this site, cookies collect data to enhance your experience and personalize the content and advertising you see.
Visit our Privacy Policy to learn more. By continuing to use the site, you agree to this use of cookies and data.
  • In Hungary
  • List of Countries
  • For 7 days
  • Water Temperature
  • Satellite Maps
  • Weather Map
  • News
  • Weather Widgets
  • user-avatar
    Login

    Hourly Weather Chhota Udepur

    Today, 20 January, Sunday

    Time Temperature Precipitation Wind Pressure Humidity
    00:00 +21°C° 0 mm 2 mps 748 mmHg 23%
    01:00 +21°C° 0 mm 2 mps 748 mmHg 24%
    02:00 +21°C° 0 mm 2 mps 748 mmHg 24%
    03:00 +20°C° 0 mm 2 mps 748 mmHg 25%
    04:00 +20°C° 0 mm 2 mps 748 mmHg 26%
    05:00 +20°C° 0 mm 2 mps 748 mmHg 26%
    06:00 +20°C° 0 mm 2 mps 748 mmHg 27%
    07:00 +21°C° 0 mm 2 mps 749 mmHg 28%
    08:00 +21°C° 0 mm 2 mps 749 mmHg 29%
    09:00 +25°C° 0 mm 2 mps 749 mmHg 26%
    10:00 +28°C° 0 mm 2 mps 749 mmHg 23%
    11:00 +31°C° 0 mm 2 mps 749 mmHg 20%
    12:00 +32°C° 0 mm 2 mps 748 mmHg 19%
    13:00 +34°C° 0 mm 2 mps 747 mmHg 18%
    14:00 +35°C° 0 mm 2 mps 747 mmHg 17%
    15:00 +34°C° 0 mm 1 mps 746 mmHg 19%
    16:00 +33°C° 0 mm 1 mps 746 mmHg 20%
    17:00 +33°C° 0 mm 1 mps 746 mmHg 21%
    18:00 +31°C° 0 mm 1 mps 746 mmHg 23%
    19:00 +29°C° 0 mm 1 mps 746 mmHg 24%
    20:00 +27°C° 0 mm 1 mps 747 mmHg 26%
    21:00 +26°C° 0 mm 1 mps 747 mmHg 28%
    22:00 +25°C° 0 mm 1 mps 747 mmHg 29%
    23:00 +24°C° 0 mm 1 mps 747 mmHg 31%

    Tomorrow, 21 January, Monday

    Time Temperature Precipitation Wind Pressure Humidity
    00:00 +24°C° 0 mm 1 mps 747 mmHg 32%
    01:00 +23°C° 0 mm 1 mps 746 mmHg 33%
    02:00 +23°C° 0 mm 1 mps 746 mmHg 34%
    03:00 +23°C° 0 mm 1 mps 746 mmHg 35%
    04:00 +22°C° 0 mm 1 mps 746 mmHg 36%
    05:00 +22°C° 0 mm 1 mps 746 mmHg 37%
    06:00 +22°C° 0 mm 1 mps 747 mmHg 38%
    07:00 +23°C° 0 mm 1 mps 747 mmHg 39%
    08:00 +23°C° 0 mm 2 mps 748 mmHg 39%
    09:00 +26°C° 0 mm 2 mps 748 mmHg 34%
    10:00 +28°C° 0 mm 3 mps 748 mmHg 29%
    11:00 +30°C° 0 mm 3 mps 748 mmHg 24%
    12:00 +32°C° 0 mm 4 mps 747 mmHg 22%
    13:00 +33°C° 0 mm 5 mps 746 mmHg 20%
    14:00 +34°C° 0 mm 5 mps 745 mmHg 17%
    15:00 +33°C° 0 mm 5 mps 745 mmHg 18%
    16:00 +32°C° 0 mm 5 mps 745 mmHg 19%
    17:00 +30°C° 0 mm 5 mps 744 mmHg 20%
    18:00 +28°C° 0 mm 4 mps 745 mmHg 23%
    19:00 +26°C° 0 mm 3 mps 745 mmHg 25%
    20:00 +24°C° 0 mm 2 mps 745 mmHg 27%
    21:00 +24°C° 0 mm 3 mps 746 mmHg 28%
    22:00 +22°C° 0 mm 3 mps 746 mmHg 30%
    23:00 +22°C° 0 mm 3 mps 746 mmHg 31%

    Day after tomorrow, 22 January, Tuesday

    Time Temperature Precipitation Wind Pressure Humidity
    00:00 +21°C° 0 mm 3 mps 745 mmHg 40%
    01:00 +21°C° 0 mm 3 mps 745 mmHg 48%
    02:00 +20°C° 0 mm 4 mps 745 mmHg 57%
    03:00 +19°C° 0 mm 3 mps 745 mmHg 63%
    04:00 +19°C° 0 mm 3 mps 745 mmHg 68%
    05:00 +18°C° 0 mm 2 mps 745 mmHg 74%
    06:00 +19°C° 0 mm 2 mps 746 mmHg 73%
    07:00 +19°C° 0 mm 2 mps 746 mmHg 72%
    08:00 +20°C° 0 mm 2 mps 747 mmHg 71%
    09:00 +21°C° 0 mm 2 mps 747 mmHg 64%
    10:00 +24°C° 0 mm 2 mps 747 mmHg 56%
    11:00 +26°C° 0 mm 2 mps 748 mmHg 49%
    12:00 +27°C° 0 mm 3 mps 747 mmHg 44%
    13:00 +28°C° 0 mm 3 mps 746 mmHg 39%
    14:00 +29°C° 0 mm 4 mps 745 mmHg 33%
    15:00 +29°C° 0 mm 4 mps 745 mmHg 34%
    16:00 +29°C° 0 mm 4 mps 745 mmHg 34%
    17:00 +28°C° 0 mm 4 mps 745 mmHg 35%
    18:00 +27°C° 0 mm 3 mps 745 mmHg 39%
    19:00 +25°C° 0 mm 3 mps 746 mmHg 43%
    20:00 +23°C° 0 mm 2 mps 747 mmHg 47%
    21:00 +23°C° 0 mm 2 mps 747 mmHg 49%
    22:00 +22°C° 0 mm 1 mps 747 mmHg 52%
    23:00 +21°C° 0 mm 1 mps 747 mmHg 54%

    23 January, Wednesday

    Time Temperature Precipitation Wind Pressure Humidity
    00:00 +21°C° 0 mm 1 mps 747 mmHg 57%
    01:00 +20°C° 0 mm 1 mps 747 mmHg 61%
    02:00 +20°C° 0 mm 1 mps 747 mmHg 64%
    03:00 +19°C° 0 mm 1 mps 747 mmHg 67%
    04:00 +17°C° 0 mm 0 mps 747 mmHg 70%
    05:00 +17°C° 0 mm 0 mps 746 mmHg 72%
    06:00 +17°C° 0 mm 0 mps 747 mmHg 71%
    07:00 +20°C° 0 mm 1 mps 748 mmHg 70%
    08:00 +21°C° 0 mm 1 mps 748 mmHg 68%
    09:00 +23°C° 0 mm 1 mps 749 mmHg 61%
    10:00 +25°C° 0 mm 1 mps 749 mmHg 53%
    11:00 +27°C° 0 mm 1 mps 749 mmHg 45%
    12:00 +27°C° 0 mm 1 mps 748 mmHg 41%
    13:00 +28°C° 0 mm 2 mps 747 mmHg 37%
    14:00 +29°C° 0 mm 2 mps 746 mmHg 33%
    15:00 +29°C° 0 mm 2 mps 746 mmHg 32%
    16:00 +29°C° 0 mm 2 mps 746 mmHg 32%
    17:00 +29°C° 0 mm 2 mps 746 mmHg 32%
    18:00 +27°C° 0 mm 2 mps 746 mmHg 33%
    19:00 +25°C° 0 mm 2 mps 747 mmHg 35%
    20:00 +24°C° 0 mm 2 mps 748 mmHg 36%
    21:00 +23°C° 0 mm 2 mps 748 mmHg 36%
    22:00 +21°C° 0 mm 2 mps 748 mmHg 36%
    23:00 +20°C° 0 mm 2 mps 748 mmHg 35%

    24 January, Thursday

    Time Temperature Precipitation Wind Pressure Humidity
    00:00 +19°C° 0 mm 2 mps 748 mmHg 36%
    01:00 +19°C° 0 mm 2 mps 748 mmHg 36%
    02:00 +19°C° 0 mm 1 mps 747 mmHg 37%
    03:00 +19°C° 0 mm 1 mps 748 mmHg 38%
    04:00 +18°C° 0 mm 1 mps 748 mmHg 38%
    05:00 +18°C° 0 mm 1 mps 748 mmHg 39%
    06:00 +18°C° 0 mm 1 mps 748 mmHg 39%
    07:00 +19°C° 0 mm 1 mps 749 mmHg 38%
    08:00 +20°C° 0 mm 1 mps 750 mmHg 38%
    09:00 +21°C° 0 mm 2 mps 750 mmHg 34%
    10:00 +24°C° 0 mm 2 mps 750 mmHg 29%
    11:00 +27°C° 0 mm 2 mps 750 mmHg 25%
    12:00 +28°C° 0 mm 2 mps 749 mmHg 23%
    13:00 +29°C° 0 mm 1 mps 748 mmHg 21%
    14:00 +30°C° 0 mm 1 mps 747 mmHg 19%
    15:00 +29°C° 0 mm 1 mps 747 mmHg 20%
    16:00 +29°C° 0 mm 1 mps 746 mmHg 20%
    17:00 +28°C° 0 mm 1 mps 746 mmHg 21%
    18:00 +27°C° 0 mm 2 mps 747 mmHg 22%
    19:00 +25°C° 0 mm 2 mps 747 mmHg 22%
    20:00 +23°C° 0 mm 2 mps 748 mmHg 23%
    21:00 +21°C° 0 mm 2 mps 748 mmHg 23%
    22:00 +20°C° 0 mm 2 mps 748 mmHg 23%
    23:00 +21°C° 0 mm 1 mps 748 mmHg 24%

    25 January, Friday

    Time Temperature Precipitation Wind Pressure Humidity
    00:00 +20°C° 0 mm 1 mps 747 mmHg 26%
    01:00 +19°C° 0 mm 1 mps 747 mmHg 28%
    02:00 +19°C° 0 mm 1 mps 747 mmHg 30%
    03:00 +18°C° 0 mm 1 mps 747 mmHg 33%
    04:00 +18°C° 0 mm 1 mps 747 mmHg 37%
    05:00 +16°C° 0 mm 2 mps 747 mmHg 40%
    06:00 +17°C° 0 mm 2 mps 747 mmHg 42%
    07:00 +17°C° 0 mm 2 mps 748 mmHg 44%
    08:00 +18°C° 0 mm 3 mps 749 mmHg 46%
    09:00 +20°C° 0 mm 3 mps 749 mmHg 42%
    10:00 +24°C° 0 mm 3 mps 749 mmHg 39%
    11:00 +26°C° 0 mm 3 mps 749 mmHg 36%
    12:00 +27°C° 0 mm 3 mps 748 mmHg 32%
    13:00 +28°C° 0 mm 3 mps 747 mmHg 29%
    14:00 +29°C° 0 mm 3 mps 746 mmHg 26%
    15:00 +28°C° 0 mm 3 mps 746 mmHg 27%
    16:00 +28°C° 0 mm 3 mps 746 mmHg 27%
    17:00 +28°C° 0 mm 3 mps 746 mmHg 28%
    18:00 +26°C° 0 mm 3 mps 747 mmHg 31%
    19:00 +24°C° 0 mm 3 mps 747 mmHg 34%
    20:00 +22°C° 0 mm 3 mps 748 mmHg 36%
    21:00 +21°C° 0 mm 3 mps 748 mmHg 39%
    22:00 +21°C° 0 mm 4 mps 748 mmHg 42%
    23:00 +20°C° 0 mm 4 mps 748 mmHg 45%
    Show more